• MPC Preparation (Info)

  • MPEC 2006-U55 : 2006 UE64

    The following Minor Planet Electronic Circular may be linked-to from your own Web pages, but must not otherwise be redistributed electronically.

    A form allowing access to any MPEC is at the bottom of this page.


    Read MPEC 2006-U54 Read MPEC 2006-U56


    M.P.E.C. 2006-U55                                Issued 2006 Oct. 24, 15:59 UT
    
         The Minor Planet Electronic Circulars contain information on unusual
             minor planets and routine data on comets.  They are published
       on behalf of Commission 20 of the International Astronomical Union by the
              Minor Planet Center, Smithsonian Astrophysical Observatory,
                              Cambridge, MA 02138, U.S.A.
    
                 Prepared using the Tamkin Foundation Computer Network
    
                                  MPC@CFA.HARVARD.EDU
              URL http://cfa-www.harvard.edu/iau/mpc.html  ISSN 1523-6714
    
                                       2006 UE64
    
    Observations:
         K06U64E  C2006 10 23.26192 01 16 16.57 +33 44 45.9          18.9 V EU055703
         K06U64E  C2006 10 23.27059 01 16 19.70 +33 44 52.3          19.4 V EU055703
         K06U64E  C2006 10 23.27928 01 16 22.65 +33 44 52.9          19.7 V EU055703
         K06U64E  C2006 10 23.28799 01 16 25.75 +33 44 55.5          19.9 V EU055703
         K06U64E* C2006 10 23.34607 01 16 45.60 +33 44 43.9          20.0 V EU055703
         K06U64E  C2006 10 23.34979 01 16 46.93 +33 44 41.5          19.9 V EU055703
         K06U64E  C2006 10 23.35726 01 16 49.51 +33 44 37.5          19.6 V EU055703
         K06U64E  C2006 10 24.21815 01 23 01.56 +33 46 15.6          20.4 R EU055734
         K06U64E  C2006 10 24.22547 01 23 02.59 +33 46 16.2          20.8 R EU055734
         K06U64E  C2006 10 24.23426 01 23 03.82 +33 46 17.3          21.6 R EU055734
    
    Observer details:
    703 Catalina Sky Survey.  Observer S. M. Larson.  Measurers E. C. Beshore,
        E. J. Christensen, G. J. Garradd, A. R. Gibbs, A. D. Grauer, R. E. Hill,
        R. A. Kowalski, S. M. Larson, R. H. McNaught.  0.68-m Schmidt + CCD.
    734 Farpoint Observatory.  Observer D. Tibbets.  Measurer G. Hug.  0.7-m
        reflector + CCD.
    
    Orbital elements:
    2006 UE64                                                Earth MOID = 0.0005 AU
    Epoch 2006 Sept. 22.0 TT = JDT 2454000.5                MPC
    M  16.86287              (2000.0)            P               Q
    n   0.68823056     Peri.  286.81222     +0.69013217     +0.72083636
    a   1.2705158      Node    27.17229     -0.59893961     +0.61866237
    e   0.3663606      Incl.    8.07262     -0.40618829     +0.31249291
    P   1.43           H   27.9           G   0.15           U   9
    Residuals in seconds of arc
    061023 703  1.0-  1.5-    061023 703  0.1-  0.0     061024 734  0.1-  0.2-
    061023 703  0.4+  1.7+    061023 703  0.3+  0.6-    061024 734  0.7+  0.1+
    061023 703  0.3-  0.1-    061023 703  0.4-  0.5-
    061023 703  1.1+  1.0+    061024 734  0.7-  0.2+
    
    Ephemeris:
    2006 UE64                a,e,i = 1.27, 0.37, 8                   q = 0.8050
    Date    TT    R. A. (2000) Decl.     Delta      r     Elong.  Phase     V
    2006 10 22    00 38.73   +33 01.6    0.00649  1.001   153.1    26.7    18.2
    2006 10 23    01 13.10   +33 42.7    0.0131   1.007   156.1    23.6    19.6
    2006 10 24    01 21.81   +33 46.6    0.0197   1.013   156.7    22.9    20.5
    2006 10 25    01 26.10   +33 46.9    0.0263   1.019   157.1    22.4    21.1
    2006 10 26    01 28.70   +33 46.0    0.0330   1.025   157.3    22.0    21.6
    2006 10 27    01 30.45   +33 44.5    0.0396   1.031   157.5    21.6    22.0
    2006 10 28    01 31.74   +33 42.5    0.0463   1.037   157.7    21.4    22.3
    2006 10 29    01 32.73   +33 40.3    0.0530   1.043   157.7    21.2    22.6
    2006 10 30    01 33.54   +33 37.7    0.0597   1.049   157.8    21.0    22.9
    2006 10 31    01 34.22   +33 35.0    0.0665   1.055   157.8    20.8    23.2
    2006 11 01    01 34.82   +33 32.0    0.0733   1.061   157.8    20.7    23.4
    
    Kyle E. Smalley              (C) Copyright 2006 MPC           M.P.E.C. 2006-U55
    

    Read MPEC 2006-U54 Read MPEC 2006-U56


    MPEC number:

    Enter an MPEC number in one of the following forms:

    • 1997-B01 (the full form)
    • J97B01 (the packed version of the full form)
    • B01 (the abbreviated form)